[[{"header":{"parameterUnit":"m.s-1","parameterCategory":1,"la1":30.2992,"la2":30.254,"lo1":-89.0895,"lo2":-89.0443,"dy":0.0025,"dx":0.0025,"nx":19,"ny":19,"refTime":"2026-04-07T03:00:00:Z","depth":0,"parameterNumber":2,"parameterNumberName":"U-component_of_WINDS"},"data":[0,0,0,-8.685,-8.6854,-8.6977,-8.6977,-8.7177,-8.7179,0,0,0,0,0,0,0,0,0,0,0,-8.6839,-8.6841,-8.685,-8.6854,-8.6977,-8.6977,-8.7176,-8.7179,0,0,0,0,0,0,0,0,0,0,0,-8.6838,-8.684,-8.6843,-8.6854,-8.6977,-8.6977,-8.7176,-8.7068,0,0,0,0,0,0,0,0,0,0,-8.6941,-8.6955,-8.684,-8.6843,-8.6855,-8.6977,-8.6977,-8.7062,-8.7075,-8.7139,0,-8.7202,0,-8.7194,-8.7195,-8.7196,0,0,0,-8.6835,-8.6945,-8.6955,-8.6844,-8.6857,-8.6977,-8.6916,-8.7069,-8.7083,-8.7156,-8.7205,-8.7211,-8.7197,-8.7196,-8.7197,-8.7631,-8.7634,0,0,-8.6828,-8.6874,-8.6946,-8.6966,-8.6949,-8.6912,-8.692,-8.7076,-8.7133,-8.7205,-8.7215,-8.7201,-8.7198,-8.72,-8.7628,-8.7632,0,0,0,-8.6821,-8.6871,-8.6876,-8.6959,-8.6978,-8.6916,-8.6925,-8.7126,-8.7124,-8.7217,-8.7203,-8.7199,-8.7202,-8.7625,-8.763,-8.7819,0,0,0,-8.6816,-8.6866,-8.6874,-8.6904,-8.6976,-8.7053,-8.6972,-8.7113,-8.7129,-8.7202,-8.7199,-8.7205,-8.7622,-8.7627,-8.7807,-8.7901,0,0,0,-8.6822,-8.6867,-8.6893,-8.6906,-8.6961,-8.705,-8.7056,-8.7115,-8.7122,-8.7196,-8.7205,-8.762,-8.7626,-8.7796,-8.7883,-8.803,0,0,0,-8.6842,-8.7059,-8.6897,-8.7134,-8.696,-8.7166,-8.7054,-8.7205,-8.7291,-8.7201,-8.7622,-8.7629,-8.7792,-8.7872,-8.8018,-8.8162,-8.8226,0,0,-8.7141,-8.7097,-8.7232,-8.7091,-8.7338,-8.7144,-8.7418,-8.7452,-8.7416,-8.7562,-8.7572,-8.7811,-8.7882,-8.8027,-8.8567,-8.8619,0,0,0,-8.7343,-8.7442,-8.7497,-8.7581,-8.7614,-8.7649,-8.7637,-8.765,-8.7771,-8.7501,-8.7902,-8.7942,-8.8026,-8.8092,-8.8136,-8.8205,-8.7662,-8.7661,-8.766,-8.7833,-8.7777,-8.7999,-8.7959,-8.8042,-8.8028,-8.8091,-8.8106,-8.8024,-8.812,-8.8163,-8.8498,-8.8577,-8.861,-8.8683,-8.8234,-8.8234,-8.8235,-8.8236,-8.8268,-8.8399,-8.8286,-8.8461,-8.8401,-8.8547,-8.8544,-8.8481,-8.8609,-8.846,-8.8531,-8.8374,-8.8668,-8.8728,-8.8249,-8.8247,-8.8245,-8.8244,-8.8243,-8.8583,-8.8636,-8.8649,-8.8767,-8.8864,-8.8815,-8.8944,-8.8884,-8.8829,-8.8899,-8.8938,-8.8935,-8.8925,-8.8922,-8.8923,-8.8924,-8.8925,-8.8926,-8.8927,-8.8904,-8.8913,-8.9029,-8.9084,-8.9131,-8.9186,-8.9176,-8.9221,-8.9256,-8.9202,-8.9202,-8.9112,-8.8707,-8.8606,-8.8945,-8.8941,-8.8939,-8.8938,-8.8936,-8.9366,-8.9253,-8.9432,-8.948,-8.954,-8.9642,-8.9565,-8.9663,-8.9691,-8.9757,-8.9652,-8.9362,-8.9312,-8.9277,-8.9193,-8.9663,-8.9663,-8.9663,-8.9663,-8.9633,-8.9601,-8.9772,-8.9854,-8.9926,-8.9875,-9.0081,-9.0077,-9.0054,-9.0069,-8.9992,-8.9877,-8.9844,-8.9813,-8.9766,-8.9687,-9.0272,-9.0273,-9.0273,-8.9914,-8.9888,-9.0074,-9.0051,-9.0094,-9.0133,-9.0326,-9.0424,-9.0375,-9.0297,-9.008,-9.0054,-8.9866,-8.9808,-8.9725,-8.9654,-8.9508,0,0]},{"header":{"parameterUnit":"m.s-1","parameterCategory":1,"la1":30.2992,"la2":30.254,"lo1":-89.0895,"lo2":-89.0443,"dy":0.0025,"dx":0.0025,"nx":19,"ny":19,"refTime":"2026-04-07T03:00:00:Z","depth":0,"parameterNumber":3,"parameterNumberName":"V-component_of_WINDS"},"data":[0,0,0,0.2757,0.2756,0.2716,0.2716,0.2652,0.2651,0,0,0,0,0,0,0,0,0,0,0,0.2762,0.2761,0.2757,0.2756,0.2716,0.2716,0.2652,0.2651,0,0,0,0,0,0,0,0,0,0,0,0.2762,0.2761,0.2761,0.2756,0.2716,0.2716,0.2652,0.2686,0,0,0,0,0,0,0,0,0,0,0.2727,0.2725,0.2762,0.2761,0.2755,0.2716,0.2716,0.2688,0.2684,0.2665,0,0.2647,0,0.2648,0.2646,0.2646,0,0,0,0.276,0.2729,0.2725,0.276,0.2755,0.2716,0.2735,0.2686,0.2682,0.2659,0.2646,0.2644,0.2647,0.2646,0.2645,0.2522,0.2521,0,0,0.2762,0.275,0.2728,0.2721,0.2728,0.2736,0.2734,0.2684,0.2667,0.2646,0.2642,0.2646,0.2645,0.2644,0.2523,0.2522,0,0,0,0.2766,0.2752,0.2749,0.2724,0.2718,0.2735,0.2732,0.267,0.267,0.2642,0.2645,0.2645,0.2644,0.2524,0.2522,0.2473,0,0,0,0.2767,0.2754,0.275,0.2742,0.2718,0.2693,0.2719,0.2673,0.2668,0.2645,0.2645,0.2643,0.2525,0.2523,0.2476,0.245,0,0,0,0.2767,0.2754,0.2746,0.2741,0.2724,0.2694,0.2692,0.2673,0.267,0.2646,0.2643,0.2525,0.2523,0.2479,0.2455,0.2414,0,0,0,0.2762,0.27,0.2745,0.2678,0.2724,0.2665,0.2692,0.2648,0.2622,0.2644,0.2524,0.2523,0.248,0.2458,0.2417,0.2377,0.2359,0,0,0.2678,0.269,0.2652,0.269,0.262,0.2672,0.2594,0.258,0.2587,0.2543,0.254,0.2475,0.2455,0.2415,0.2268,0.2254,0,0,0,0.2621,0.2593,0.2577,0.2552,0.2542,0.2531,0.2531,0.2526,0.249,0.2563,0.245,0.2439,0.2416,0.2397,0.2385,0.2365,0.2514,0.2514,0.2514,0.2482,0.2498,0.2435,0.2447,0.2423,0.2425,0.2407,0.24,0.2421,0.2395,0.238,0.229,0.2268,0.2259,0.2238,0.2362,0.2362,0.2362,0.2361,0.2358,0.2321,0.2354,0.2305,0.2322,0.2281,0.2281,0.2298,0.2261,0.2301,0.2281,0.2322,0.2243,0.2226,0.2358,0.2358,0.2359,0.2359,0.236,0.2268,0.2253,0.225,0.2219,0.2192,0.2206,0.217,0.2187,0.2202,0.2182,0.2169,0.217,0.2172,0.2176,0.2175,0.2175,0.2175,0.2175,0.2174,0.2174,0.2173,0.2141,0.2128,0.2116,0.2102,0.2106,0.2093,0.2084,0.2098,0.2098,0.2121,0.2233,0.226,0.217,0.217,0.2171,0.2172,0.2172,0.2039,0.2073,0.2025,0.2013,0.1999,0.1972,0.1996,0.197,0.1962,0.1944,0.1973,0.2054,0.2066,0.2076,0.2098,0.1971,0.1971,0.1971,0.1971,0.1961,0.1971,0.1926,0.1906,0.1889,0.1906,0.185,0.1853,0.1861,0.1857,0.1879,0.1911,0.192,0.1927,0.194,0.196,0.1801,0.1801,0.1801,0.188,0.1889,0.1838,0.1849,0.1841,0.1833,0.1781,0.1755,0.1771,0.1794,0.1855,0.1862,0.1913,0.1929,0.195,0.1969,0.2008,0,0]}]]